Погода в Кубе

Погода в Кубе : погода сейчас, прогноз погоды и архив. Всё, что Вы хотите узнать о погоде в Кубе!

Поиск расширенной информации на нашем сайте:

Другие новости

Новости СМИ2

Главная страница сайта

Новости сайта

02.10.2013

Напоминаем, что на нашем новом сайте вы можете получить высокодетализированные прогнозы погоды по пунктам России, СНГ и мира (включающие важные для авиации метеовеличины, такие как направление и скорость ветра, видимость, явления погоды, количество и форма облачности, нижняя и верхняя граница облачности), а также ознакомиться с разнообразными материалами по авиационной метеорологии и подборкой полезных ссылок на эту тему.

Сайт Метеоцентр.Азия посвящён разработке технологий оптимизации авиаметеорологического обслуживания, включая проектирование и перспективное создание нескольких автоматизированных авиаметеорологических систем:
- система выпуска высокодетальных прогностических карт явлений погоды для нижнего воздушного пространства по России и ближнему зарубежью;
- система верификации прогнозов TAF (выпускаемых синоптиками официальных АМСГ РФ и ближнего зарубежья) и AUTOTAF (выпускаемых сайтом Метеоцентр.Азия) - выявление ошибок, онлайн-сопоставление с фактической погодой METAR, автоматическое внесение коррективов в прогнозы при резком отклонении фактической погоды от прогноза, подсчёт оправдываемости прогнозов по элементам и в целом;
- система обработки, анализа и отображения авиаметеорологической информации для применения провайдерами метеорологической информации.

Рекомендуем: Знакомство в Одессе бесплатный сайт Знакомств.

Погода в Кубе - сегодня

Время (UTC), дата Ветер
(°,м/с) 
Видим.   Явления Облачность Т
(°С)
Тd
(°С)
f(%) Тe
(°С)
Pmin
(гПа)
dP
(гПа)
Po
(мм)
O2
(г/м3)
Тmin Tmax R s Состояние
почвы
06 27.03.17 050 (СВ) 20000 м    6/0 верхняя 
[Ci ing]
+11 -4.7 33 +11  1015.3  0.3  713  277           
09 27.03.17 090 (В) 20000 м    6/0 верхняя 
[Ci ing]
+10.1 +4.5 68 +11  1009.1  -1.4  709  275           
12 27.03.17 050 (СВ) 10 км    9/9 600 м 
[Sc]
+6.3 +4 85 +5  1011.1  709  279           
15 27.03.17 тихо ()   0200 м  туман  ?/?  
+3.3 +3.3 100 +3  1013.9  1.9  711  282           
18 27.03.17 тихо ()   2000 м  {туман}  10/10 300 м 
[Ns]
+4 +3 93 +4  1015.1  1.4  712  282    +12.6       
21 27.03.17 тихо ()   2000 м    9/9 600 м 
[Sc]
+5.1 +2.7 84 +5  1014  -0.8  711  281           
00 28.03.17 180 (Ю) 2000 м    9/9 600 м 
[Sc]
+6.2 +3.1 81 +5  1013.5  -0.5  711  279           
03 28.03.17 тихо ()   10 км    9/9 600 м 
[Sc]
+5.3 +2.9 84 +5  1015.9  2.2  712  281           
06 28.03.17 360 (С) 2000 м  слаб. дождь  10/10 300 м 
[Ns]
+2.8 +1.8 93 +2  1018  1.5  714  284           
09 28.03.17 340 (С) 2000 м  слаб. дождь  10/10 300 м 
[Ns]
+3.6 +1.5 86 +4  1019.7  1.8  715  284           
12 28.03.17 110 (В) 10 км  {дождь}  9/9 600 м 
[Sc]
+5.1 +0.7 73 +6  1018.9  -0.6  714  282           
15 28.03.17 110 (В) 10 км    6/6 600 м 
[Cu med, cong]
+5.3 +1.2 75 +5  1017.7  -1  714  282         
18 28.03.17 200 (Ю) 2000 м    ясно 
+3 +0.1 81 +2  1016.8  -1.4  713  284    +6.6       
21 28.03.17 270 (З) 2000 м    ясно 
+3.2 -1.6 71 +3  1014.1  -2.4  711  283           
00 29.03.17 270 (З) 2000 м    ясно 
+3.8 -3.9 57 +3  1013.2  -0.7  710  283           
03 29.03.17 270 (З) 20000 м    ясно 
+5.2 -6.2 44 +5  1014.6  1.5  711  282           
06 29.03.17 360 (С) 20000 м    ясно 
+14.7 -3.6 28 +15  1015.3  2.8  714  273           
09 29.03.17 070 (В) 20000 м    ясно 
+12.9 +2.1 48 +12  1016.9  1.1  714  274           
12 29.03.17 050 (СВ) 10 км    9/9 600 м 
[Sc]
+9.5 +2.7 62 +9  1019.2  1.5  716  278           
15 29.03.17 110 (В) 10 км    9/9 600 м 
[Sc]
+6.6 +3.3 79 +8  1022.6  2.5  717  282           
18 29.03.17 140 (ЮВ) 2000 м    9/9 600 м 
[Sc]
+5.5 +2.6 82 +6  1024.8  1.8  719  283    +15.4       
21 29.03.17 110 (В) 2000 м    9/9 600 м 
[Sc]
+5.6 +2.4 80 +6  1025.4  0.6  719  284           
00 30.03.17 тихо ()   2000 м    ясно 
+2.8 +0.7 86 +3  1024.7  -1.3  718  286           
03 30.03.17 270 (З) 20000 м    ясно 
+2.6 -0.4 81 +3  1023.3  -1.4  717  286           
06 30.03.17 090 (В) 20000 м    ясно 
+12.9 +2.1 48 +14  1019.4  -1.3  716  275           
Время (UTC), дата Ветер
(°,м/с) 
Видим.   Явления Облачность Т
(°С)
Тd
(°С)
f(%) Тe
(°С)
Pmin
(гПа)
dP
(гПа)
Po
(мм)
O2
(г/м3)
Тmin Tmax R s Состояние
почвы

Для получения пояснительной информации подведите курсор к названию столбца.

ПОГОДА в Кубе - архив

Всё, что Вы хотите узнать о погоде в Кубе - удобно и подробно!

Выберите нужную дату (начиная с 1 января 2015* года) и нажмите кнопку "Найти".
Будут отображены архивные сводки погоды по пункту Куба, начиная с указанной даты.


Отображать данные в формате CSV (для использования в таблицах Excel)


Внимание! Наш архив погоды предназначен исключительно для личного некоммерческого использования в познавательных целях. Если Вам необходимы официальные справки о состоянии погоды (для производственных, юридических, коммерческих и т.п. целей), обращайтесь в органы Росгидромета.

*Примечание: данная дата относится к архиву по метеостанциям СССР (Россия, СНГ, Балтия).
Архив по метеостанциям Зарубежной Европы и Азии (кроме Китая) хранится 10 дней, по другим регионам земного шара (Китай, Африка, Америка, Австралия, Океания) - 1 день.

Куба - район местоположения метеостанции


Название, широта, долгота, высота метеостанции:
Куба 41.4°ш. 48.5°д. 552 м над ур. моря [Азербайджан]

Дополнительная информация

В oтличие oт бoльшинства пoгoдных сайтoв мы публикуем пoдрoбную метеoинфoрмацию в детальнoм прoфессиoнальнoм фoрмате.

Характеристики температуры и влажнoсти вoздуха измеряются на высoте 2 м в тени вдали oт зданий и деревьев.
Скoрoсть ветра измеряется на высoте 10 м (на урoвне рoста челoвека скoрoсть ветра ниже в 1.5-2 раза). Если метеoстанция нахoдится в гoрoде или в лесу, тo скoрoсть ветра занижена на 2-4 м/с пo сравнению с oткрытым местoм. Скoрoсть ветра над акватoриями крупных рек и oзёр, а также на вершинах хoлмoв на 2-5 м/с выше, чем в oбычных услoвиях.
Атмoсфернoе давление в разных тoчках местнoсти мoжет значительнo oтличаться oт давления на метеoстанции, в зависимoсти oт услoвий рельефа (при пoдъёме на 10 м давление пoнижается примернo на 1 мм рт.ст.).